Regional Weather Roundup
Issued by NWS Kansas City/Pleasant Hill, MO

Home | Current Version | Previous Version | Text Only | Print | Product List | Glossary On
Versions: 1 2 3 4 5 6 7 8 9 10 11 12 13 14 15 16 17 18 19 20 21 22 23 24 25 26 27
000
ASUS43 KEAX 261010
RWREAX

WEATHER ROUNDUP FOR EASTERN KANSAS AND NORTHWEST MISSOURI
NATIONAL WEATHER SERVICE KANSAS CITY/PLEASANT HILL MO
500 AM CDT THU MAY 26 2016

KSZ040-057-103>105-MOZ028-029-037-043-261100-
...KANSAS CITY METROPOLITAN AREA...

CITY           SKY/WX    TMP DP  RH WIND       PRES   REMARKS
K.C. INTL      TSTM      64  61  90 S20       29.87F
K.C. DOWNTOWN  TSTM      66  62  87 NW5       29.91R FOG
LEES SUMMIT    CLOUDY    67  60  78 N7        29.92R
OLATHE - IXD   CLOUDY    67  60  78 CALM      29.93R THUNDER
OLATHE - OJC   TSTM      65  59  81 VRB7      29.92F
LAWRENCE       CLOUDY    67  61  81 E9        29.89S

$$

MOZ001>008-011>017-020>025-030>033-038>040-044>046-053-054-261100-
...NORTHERN AND CENTRAL MISSOURI...

CITY           SKY/WX    TMP DP  RH WIND       PRES   REMARKS
ST. JOSEPH     CLOUDY    67  62  84 S8        29.87R
MOSBY          RAIN      66  61  82 S6        29.91R
WARRENSBURG    CLOUDY    63  61  94 S9        29.89R
WHITEMAN AFB   CLOUDY    63  63 100 SE13      29.88F
CLINTON        CLOUDY    63  63 100 CALM      29.93F
SEDALIA        TSTM      65  62  90 E7        29.94F
WARSAW         NOT AVBL
CHILLICOTHE      N/A     74  55  51 VRB5      29.89R
KIRKSVILLE     CLOUDY    70  66  87 SW5       29.87F

$$

MOZ041-047>049-056>058-063>065-088>090-097-261100-
...EASTERN AND SOUTHERN MISSOURI...

CITY           SKY/WX    TMP DP  RH WIND       PRES   REMARKS
ST. LOUIS INTL MOCLDY    72  67  84 S8        29.92F
SPIRIT OF STL  CLEAR     71  68  90 CALM      29.90F
COLUMBIA       TSTM      68  61  78 NW15G30   29.95R
JEFFERSON CITY CLOUDY    73  70  90 S5        29.89F
ROLLA          CLOUDY    72  69  90 S10       29.92F
SPRINGFIELD    CLOUDY    71  68  90 S10       29.92F
JOPLIN         CLOUDY    75  71  87 S15       29.89F
WEST PLAINS    CLOUDY    72  69  90 S7        29.98F FOG

$$

IAZ060-094-KSZ022-034>040-054-083-096-NEZ052-066-093-261100-
...KANSAS...SOUTHEAST NEBRASKA AND IOWA...

CITY           SKY/WX    TMP DP  RH WIND       PRES   REMARKS
TOPEKA         CLOUDY    68  64  87 E8        29.87R
MANHATTAN      MOCLDY    66  61  84 CALM      29.83S
EMPORIA        CLOUDY    73  71  93 S5        29.85S
CHANUTE        MOCLDY    75  72  90 S9        29.86R
WICHITA        CLOUDY    74  70  87 VRB3      29.83R
OMAHA          CLEAR     62  56  80 CALM      29.84F
LINCOLN        CLEAR     59  55  87 CALM      29.88R
FALLS CITY     CLOUDY    63  61  93 N5        29.85R
LAMONI         CLOUDY    65  62  90 E5        29.90R
DES MOINES     CLOUDY    64  57  78 CALM      29.84R

$$





USA.gov is the U.S. government's official web portal to all federal, state and local government web resources and services.